Weather History for KDVP - April, 2012

Change the Weather History Date:

Wednesday, April 4, 2012

  Actual Average (KOTG) Record (KOTG)
Temperature  
Mean Temperature 50 °F -  
Max Temperature 63 °F 46 °F 77 °F (2005)
Min Temperature 37 °F 28 °F 6 °F (1975)
Degree Days  
Heating Degree Days 15    
Moisture  
Dew Point 24 °F    
Average Humidity 39    
Maximum Humidity 65    
Minimum Humidity 18    
Precipitation  
Precipitation 0.00 in - - ()
Sea Level Pressure  
Sea Level Pressure 30.02 in    
Wind  
Wind Speed 8 mph (NE)    
Max Wind Speed 17 mph    
Max Gust Speed 23 mph    
Visibility 10 miles    
Events      
Averages and records for this station are not official NWS values.
T = Trace of Precipitation, MM = Missing Value Source: NWS Daily Summary

Daily Weather History Graph

Daily Weather History Graph

Search for Another Location

Airport or City:

Trip Planner

Search our weather history database for the weather conditions in past years. The results will help you decide how hot, cold, wet, or windy it might be!

Date:

Astronomy

Apr. 04, 2012 Rise Set
Actual Time 6:58 AM CDT 7:54 PM CDT
Civil Twilight 6:28 AM CDT 8:23 PM CDT
Nautical Twilight 5:53 AM CDT 8:58 PM CDT
Astronomical Twilight 5:17 AM CDT 9:35 PM CDT
Moon 5:46 PM CDT (4/4) 5:25 AM CDT (4/4)
Length of Visible Light 13h 54m
Length of Day
12h 56m
Waxing Gibbous, 94% of the Moon is Illuminated
Apr 4
Waxing Gibbous
Apr 6
Full
Apr 13
Last Quarter
Apr 21
New
Apr 29
First Quarter

Hourly Weather History & Observations

Time (CDT) Temp. Windchill Dew Point Humidity Pressure Visibility Wind Dir Wind Speed Gust Speed Precip Events Conditions
12:15 AM 46.2 °F 44.1 °F 25.5 °F 44% 30.07 in 10.0 mi NNE 4.6 mph - N/A   Clear
12:35 AM 45.1 °F 42.8 °F 25.7 °F 47% 30.07 in 10.0 mi North 4.6 mph - N/A   Clear
12:54 AM 43.9 °F 40.5 °F 25.3 °F 48% 30.07 in 10.0 mi North 5.8 mph - N/A   Clear
1:15 AM 42.4 °F 38.8 °F 25.5 °F 51% 30.06 in 10.0 mi North 5.8 mph - N/A   Clear
1:35 AM 41.7 °F 38.0 °F 25.3 °F 52% 30.06 in 10.0 mi North 5.8 mph - N/A   Clear
1:54 AM 41.7 °F 38.0 °F 25.5 °F 53% 30.05 in 10.0 mi North 5.8 mph - N/A   Clear
2:15 AM 41.9 °F 38.2 °F 25.7 °F 53% 30.05 in 10.0 mi NNE 5.8 mph - N/A   Clear
2:35 AM 42.3 °F 39.4 °F 25.7 °F 52% 30.06 in 10.0 mi NNE 4.6 mph - N/A   Clear
3:15 AM 40.5 °F 35.8 °F 26.4 °F 57% 30.06 in 10.0 mi North 6.9 mph - N/A   Clear
3:35 AM 40.5 °F 35.8 °F 25.7 °F 56% 30.06 in 10.0 mi North 6.9 mph - N/A   Clear
3:55 AM 40.1 °F 35.3 °F 25.5 °F 56% 30.06 in 10.0 mi North 6.9 mph - N/A   Clear
4:15 AM 39.6 °F 35.4 °F 25.7 °F 58% 30.06 in 10.0 mi North 5.8 mph - N/A   Clear
4:35 AM 39.2 °F 34.2 °F 25.7 °F 58% 30.06 in 10.0 mi North 6.9 mph - N/A   Clear
4:54 AM 39.6 °F 34.7 °F 25.7 °F 58% 30.07 in 10.0 mi North 6.9 mph - N/A   Clear
5:15 AM 39.0 °F 34.0 °F 25.7 °F 59% 30.07 in 10.0 mi North 6.9 mph - N/A   Clear
5:34 AM 39.6 °F 34.0 °F 25.7 °F 58% 30.06 in 10.0 mi NNE 8.1 mph - N/A   Clear
5:55 AM 39.4 °F 32.7 °F 26.2 °F 59% 30.05 in 10.0 mi NNE 10.4 mph - N/A   Clear
6:15 AM 38.7 °F 32.9 °F 26.4 °F 61% 30.06 in 10.0 mi North 8.1 mph - N/A   Clear
6:35 AM 37.4 °F 32.1 °F 26.4 °F 65% 30.06 in 10.0 mi North 6.9 mph - N/A   Clear
6:55 AM 37.8 °F 31.8 °F 26.2 °F 63% 30.06 in 10.0 mi North 8.1 mph - N/A   Clear
7:15 AM 38.1 °F 32.3 °F 26.1 °F 62% 30.07 in 10.0 mi NNE 8.1 mph - N/A   Clear
7:35 AM 37.6 °F 32.3 °F 26.6 °F 65% 30.07 in 10.0 mi NNE 6.9 mph - N/A   Clear
7:55 AM 38.5 °F 33.4 °F 27.5 °F 65% 30.07 in 10.0 mi NNE 6.9 mph - N/A   Clear
8:15 AM 40.6 °F 35.4 °F 28.0 °F 61% 30.07 in 10.0 mi NNE 8.1 mph - N/A   Clear
8:34 AM 42.8 °F 38.0 °F 27.7 °F 55% 30.08 in 10.0 mi NE 8.1 mph - N/A   Clear
8:55 AM 45.0 °F 39.7 °F 26.2 °F 48% 30.08 in 10.0 mi ENE 10.4 mph - N/A   Clear
9:15 AM 46.8 °F - 27.0 °F 46% 30.07 in 10.0 mi ENE 11.5 mph - N/A   Clear
9:35 AM 48.2 °F - 26.6 °F 43% 30.07 in 10.0 mi ENE 11.5 mph - N/A   Clear
9:55 AM 50.9 °F - 26.4 °F 39% 30.06 in 10.0 mi ENE 12.7 mph - N/A   Clear
10:15 AM 52.3 °F - 25.3 °F 35% 30.05 in 10.0 mi ENE 13.8 mph 18.4 mph N/A   Clear
10:35 AM 54.0 °F - 25.5 °F 33% 30.05 in 10.0 mi East 13.8 mph 18.4 mph N/A   Clear
10:55 AM 55.6 °F - 24.3 °F 30% 30.04 in 10.0 mi East 13.8 mph 20.7 mph N/A   Clear
11:15 AM 56.5 °F - 23.9 °F 28% 30.03 in 10.0 mi East 16.1 mph 23.0 mph N/A   Clear
11:35 AM 57.2 °F - 22.6 °F 26% 30.04 in 10.0 mi East 17.3 mph - N/A   Clear
11:55 AM 57.9 °F - 21.9 °F 25% 30.03 in 10.0 mi East 17.3 mph 20.7 mph N/A   Clear
12:15 PM 58.8 °F - 21.2 °F 23% 30.02 in 10.0 mi ENE 16.1 mph 21.9 mph N/A   Clear
12:35 PM 59.2 °F - 22.1 °F 24% 30.02 in 10.0 mi East 13.8 mph 20.7 mph N/A   Clear
12:54 PM 59.4 °F - 21.6 °F 23% 30.01 in 10.0 mi East 15.0 mph - N/A   Clear
1:15 PM 59.9 °F - 21.2 °F 22% 30.00 in 10.0 mi East 15.0 mph - N/A   Clear
1:35 PM 59.5 °F - 20.1 °F 22% 30.00 in 10.0 mi East 12.7 mph 18.4 mph N/A   Clear
1:55 PM 60.6 °F - 21.4 °F 22% 29.99 in 10.0 mi East 15.0 mph - N/A   Clear
2:14 PM 61.3 °F - 20.8 °F 21% 29.98 in 10.0 mi East 13.8 mph 18.4 mph N/A   Clear
2:35 PM 61.5 °F - 20.5 °F 21% 29.98 in 10.0 mi ENE 10.4 mph 16.1 mph N/A   Clear
2:54 PM 62.6 °F - 20.1 °F 20% 29.97 in 10.0 mi East 12.7 mph 16.1 mph N/A   Clear
3:14 PM 62.4 °F - 19.8 °F 19% 29.96 in 10.0 mi NE 9.2 mph 20.7 mph N/A   Clear
3:35 PM 62.8 °F - 18.7 °F 18% 29.95 in 10.0 mi East 9.2 mph 16.1 mph N/A   Clear
3:55 PM 62.1 °F - 19.8 °F 20% 29.95 in 10.0 mi ENE 12.7 mph - N/A   Clear
4:14 PM 62.1 °F - 19.0 °F 19% 29.95 in 10.0 mi East 10.4 mph - N/A   Clear
4:35 PM 63.3 °F - 19.4 °F 18% 29.94 in 10.0 mi East 9.2 mph 17.3 mph N/A   Clear
4:55 PM 61.9 °F - 19.8 °F 20% 29.93 in 10.0 mi ENE 11.5 mph - N/A   Clear
5:15 PM 62.1 °F - 20.1 °F 20% 29.92 in 10.0 mi East 8.1 mph - N/A   Clear
5:34 PM 61.7 °F - 20.7 °F 21% 29.92 in 10.0 mi NE 6.9 mph - N/A   Clear
5:55 PM 61.5 °F - 20.8 °F 21% 29.93 in 10.0 mi ENE 9.2 mph - N/A   Clear
6:15 PM 61.5 °F - 20.8 °F 21% 29.93 in 10.0 mi NE 10.4 mph - N/A   Clear
6:34 PM 60.4 °F - 20.8 °F 22% 29.94 in 10.0 mi NE 8.1 mph - N/A   Clear
6:55 PM 59.5 °F - 21.0 °F 23% 29.94 in 10.0 mi NE 9.2 mph - N/A   Clear
7:14 PM 59.0 °F - 21.0 °F 23% 29.94 in 10.0 mi ENE 8.1 mph - N/A   Clear
7:35 PM 57.7 °F - 20.5 °F 24% 29.94 in 10.0 mi ENE 8.1 mph - N/A   Clear
7:55 PM 56.5 °F - 20.8 °F 25% 29.94 in 10.0 mi ENE 8.1 mph - N/A   Clear
8:14 PM 55.6 °F - 21.2 °F 26% 29.94 in 10.0 mi ENE 8.1 mph - N/A   Clear
8:35 PM 54.5 °F - 21.6 °F 28% 29.95 in 10.0 mi ENE 8.1 mph - N/A   Clear
8:55 PM 54.5 °F - 21.7 °F 28% 29.95 in 10.0 mi ENE 10.4 mph - N/A   Clear
9:15 PM 53.6 °F - 22.6 °F 30% 29.95 in 10.0 mi ENE 10.4 mph - N/A   Clear
9:35 PM 52.5 °F - 23.5 °F 32% 29.96 in 10.0 mi ENE 6.9 mph - N/A   Clear
10:14 PM 50.9 °F - 23.7 °F 35% 29.96 in 10.0 mi ENE 9.2 mph - N/A   Clear
10:35 PM 50.2 °F - 23.9 °F 36% 29.96 in 10.0 mi ENE 8.1 mph - N/A   Clear
10:55 PM 49.5 °F - 24.6 °F 38% 29.96 in 10.0 mi East 8.1 mph - N/A   Clear
11:14 PM 49.1 °F - 24.8 °F 39% 29.95 in 10.0 mi East 9.2 mph - N/A   Clear
11:35 PM 49.5 °F - 24.8 °F 38% 29.95 in 10.0 mi East 9.2 mph - N/A   Clear
11:55 PM 49.1 °F - 24.8 °F 39% 29.95 in 10.0 mi East 9.2 mph - N/A   Clear